RJFKRJFF

Guest
Details From RJFK - KAGOSHIMA
To RJFF - FUKUOKA
Flight Number -
Tags generated
Created
Modified
Stats Distance 108 nm / 201 km
Max Altitude 6,700 ft / 2,042 m
Waypoints 3
Social Downloads 0
Likes 0
Share VATSIM

Download

Looking for another format? Having issues loading an existing format? Contact us
Advertisement - Login to hide

Notes

Basic altitude profile: - Ascent Rate: 2500ft/min - Ascent Speed: 250kts - Cruise Altitude: 35000ft - Cruise Speed: 420kts - Descent Rate: 1500ft/min - Descent Speed: 250kts Options: - Use NATs: yes - Use PACOTS: yes - Use low airways: yes - Use high airways: yes

Route

RJFK OMUTA RJFF

ID Type Via Altitude Latitude Longitude Leg Dist Tot Dist Heading (true) Name
O RJFK APT - 0 ft / 0 m 31.80340˚ 130.71941˚ - 0 nm - KAGOSHIMA
OMUTA FIX - 6,700 ft / 2,042 m 33.05894˚ 130.45039˚ 76 nm 76 nm 350° / 350° -
O RJFF APT - 0 ft / 0 m 33.58594˚ 130.45069˚ 31 nm 108 nm 0° / 0° FUKUOKA

Altitude Profile

Advertisement - Login to hide

RJFK

Details ICAO RJFK (KOJ)
Name KAGOSHIMA
Region Japan
Timezone Asia/Tokyo (UTC+9.0)
Stats Elevation 906 ft / 276 m (AMSL)
Location 31.803400° 130.719405°
Runways 1
Magnetic Variation 6.945° W

METAR

Not found

TAF

TAF RJFK 231107Z 2312/2418 34007KT 9999 FEW010 SCT015 BECMG 2400/2403 20005KT BECMG 2406/2409 03005KT

Decode

Departure Runways

ID Width Length Bearing (true) Bearing (mag) Surface Threshold Offset Overrun Length
16 150 ft / 46 m 9,861 ft / 3,006 m 150.11° 157.06° Asphalt 0 ft / 0 m 200 ft / 61 m
34 150 ft / 46 m 9,861 ft / 3,006 m 330.11° 337.06° Asphalt 0 ft / 0 m 200 ft / 61 m

RJFF

Details ICAO RJFF (FUK)
Name FUKUOKA
Region Japan
Timezone Asia/Tokyo (UTC+9.0)
Stats Elevation 32 ft / 10 m (AMSL)
Location 33.585943° 130.450686°
Runways 1
Magnetic Variation 7.481° W

METAR

RJFF 231700Z AUTO 02005KT 9999 FEW010 BKN014 17/14 Q1008

Decode

TAF

TAF RJFF 231107Z 2312/2418 33006KT 9999 FEW020 BECMG 2412/2415 15005KT

Decode

Destination Runways

ID Width Length Bearing (true) Bearing (mag) Surface Threshold Offset Overrun Length
16 197 ft / 60 m 9,217 ft / 2,810 m 150.35° 157.83° Asphalt 0 ft / 0 m 719 ft / 219 m
34 197 ft / 60 m 9,217 ft / 2,810 m 330.35° 337.83° Asphalt 0 ft / 0 m 801 ft / 244 m

Approach Navaids

Runway Type Ident Frequency Range Bearing (true) Bearing (mag) Slope Elevation
16 Localiser IFO 111.70 MHz 18 nm / 33 km 150.48° 157.97° - 18 ft / 5 m (AMSL)
16 Glidescope IFO 111.70 MHz 10 nm / 19 km 150.35° 157.83° 3.00° 58 ft / 18 m (AMSL)
34 Localiser IFF 108.90 MHz 18 nm / 33 km 330.34° 337.83° - 18 ft / 5 m (AMSL)
34 Glidescope IFF 108.90 MHz 10 nm / 19 km 330.35° 337.83° 3.00° 46 ft / 14 m (AMSL)
34 DME IFF 108.90 MHz 18 nm / 33 km - - - 46 ft / 14 m (AMSL)

Popular Alternatives